EW4138 Weather Reports


time (UTC)temp
C
wind
direction
speed
KPH
gust
KPH
rain 1hr
cm
rain 24hr
cm
rain mn
cm
humidity
%
barometer
mb
20260506010934 12 53 3.2 12.9 0.05 1.45 0.81 94 1003.7
20260506010435 12 51 6.4 16.1 0.05 1.45 0.81 94 1003.6
20260506005932 12 41 9.7 20.9 0.10 1.45 0.81 94 1003.6
20260506005729 12 52 11.3 20.9 0.15 1.45 0.81 94 1003.6
20260506004932 12 58 9.7 22.5 0.20 1.45 0.79 95 1003.6
20260506004432 12 44 6.4 22.5 0.23 1.42 0.79 95 1003.5
20260506004227 12 55 6.4 19.3 0.23 1.42 0.79 95 1003.4
20260506003728 12 44 6.4 22.5 0.30 1.42 0.79 95 1003.3
20260506002934 12 23 6.4 22.5 0.33 1.42 0.79 95 1003.4
20260506002433 12 43 6.4 16.1 0.41 1.42 0.79 95 1003.6
20260506001926 12 30 6.4 17.7 0.43 1.40 0.79 95 1003.8
20260506001714 12 55 4.8 16.1 0.43 1.37 0.76 95 1004.0
20260506000908 12 3 4.8 14.5 0.51 1.37 0.76 95 1004.3
20260506000408 12 11 4.8 12.9 0.64 1.37 0.74 95 1004.4
20260505235907 13 11 3.2 12.9 0.69 1.35 0.71 95 1004.7
20260505235709 13 34 3.2 12.9 0.61 1.27 0.64 95 1004.9
20260505234908 13 34 3.2 12.9 0.56 1.22 0.61 95 1005.1
20260505234410 13 20 4.8 14.5 0.53 1.19 0.58 95 1005.3
20260505233903 13 15 3.2 14.5 0.51 1.17 0.53 95 1005.3
20260505233705 13 19 0.0 8.0 0.48 1.12 0.48 95 1005.6
20260505232903 13 356 0.0 0.0 0.43 1.09 0.43 95 1005.8
20260505232405 13 356 0.0 0.0 0.38 1.02 0.38 95 1006.0
20260505231904 13 343 0.0 0.0 0.33 0.99 0.33 94 1006.0
20260505231404 13 205 0.0 6.4 0.30 0.94 0.33 94 1006.2
20260505231220 13 205 1.6 11.3 0.23 0.89 0.23 94 1006.3
20260505230405 13 173 1.6 11.3 0.10 0.74 0.10 94 1006.4
20260505225903 13 200 0.0 6.4 0.05 0.66 0.05 94 1006.3
20260505225403 13 165 1.6 11.3 0.08 0.66 0.05 94 1005.8
20260505224901 13 2 3.2 11.3 0.10 0.66 0.05 94 1005.2
20260505224401 13 5 3.2 11.3 0.13 0.66 0.05 94 1005.2
20260505223901 13 16 3.2 12.9 0.38 0.66 0.05 94 1005.2
20260505223648 13 1 4.8 14.5 0.51 0.64 0.03 94 1005.2
20260505222850 13 11 3.2 14.5 0.51 0.64 0.03 94 1005.2
20260505222351 13 14 1.6 12.9 0.51 0.64 0.03 94 1005.2
20260505221855 13 336 1.6 11.3 0.56 0.64 0.03 93 1005.2
20260505221349 13 345 4.8 12.9 0.58 0.64 0.03 93 1005.2
20260505220849 13 0 4.8 14.5 0.58 0.64 0.03 93 1005.2
20260505220345 13 342 3.2 14.5 0.58 0.64 0.00 93 1005.3
20260505215836 13 12 3.2 11.3 0.56 0.61 0.61 93 1005.6
20260505215334 13 359 3.2 11.3 0.51 0.56 0.56 93 1005.7
20260505215129 13 8 3.2 12.9 0.48 0.53 0.53 92 1005.6
20260505214333 13 1 1.6 12.9 0.48 0.53 0.53 92 1005.7
20260505213834 14 1 0.0 8.0 0.18 0.23 0.23 92 1006.1
20260505213333 14 71 1.6 9.7 0.08 0.15 0.13 91 1006.2
20260505213133 14 13 1.6 11.3 0.05 0.13 0.13 91 1005.9
20260505212336 14 24 4.8 12.9 0.05 0.13 0.13 90 1006.0
20260505211833 14 32 4.8 12.9 0.03 0.08 0.08 89 1005.8
20260505211334 14 13 4.8 12.9 0.00 0.05 0.05 89 1005.7
20260505210833 14 26 4.8 12.9 0.00 0.05 0.05 89 1005.8
20260505210334 14 32 4.8 12.9 0.00 0.05 0.05 89 1005.9
20260505205832 15 58 3.2 14.5 0.00 0.05 0.05 89 1005.8
20260505205332 15 40 1.6 14.5 0.00 0.05 0.05 89 1005.7
20260505204832 15 18 3.2 16.1 0.00 0.05 0.05 89 1005.6
20260505204335 15 37 4.8 16.1 0.00 0.05 0.05 89 1005.5
20260505203828 15 26 1.6 12.9 0.00 0.05 0.05 89 1005.5
20260505203317 15 49 1.6 12.9 0.00 0.05 0.05 89 1005.4
20260505203107 15 18 3.2 11.3 0.00 0.05 0.05 89 1005.4
20260505202308 15 22 3.2 12.9 0.00 0.05 0.05 89 1005.4
20260505201801 15 1 3.2 12.9 0.00 0.05 0.05 88 1005.4
20260505201257 15 1 1.6 9.7 0.00 0.05 0.05 88 1005.4
20260505200755 15 23 1.6 11.3 0.00 0.05 0.05 87 1005.4
20260505200404 15 56 4.8 14.5 0.00 0.05 0.05 87 1005.5
20260505195543 15 4 3.2 12.9 0.00 0.05 0.05 85 1005.5
20260505195026 16 13 1.6 9.7 0.00 0.05 0.05 84 1005.6
20260505194545 16 31 1.6 9.7 0.00 0.05 0.05 84 1005.6
20260505193738 16 43 0.0 9.7 0.00 0.05 0.05 83 1005.6
20260505193237 16 35 0.0 0.0 0.00 0.05 0.05 83 1005.6
20260505192733 16 46 0.0 0.0 0.00 0.05 0.05 82 1005.7
20260505192233 16 46 0.0 0.0 0.00 0.05 0.05 82 1005.6
20260505191733 16 46 0.0 0.0 0.00 0.05 0.05 82 1005.7
20260505191233 16 42 0.0 6.4 0.00 0.05 0.05 81 1005.8
20260505190727 16 41 0.0 6.4 0.00 0.05 0.05 81 1005.8
20260505190226 16 24 0.0 11.3 0.00 0.05 0.05 81 1005.8
20260505185719 16 44 0.0 11.3 0.00 0.05 0.05 81 1005.7
20260505185216 16 56 0.0 8.0 0.00 0.05 0.05 80 1005.8
20260505184711 16 56 0.0 8.0 0.00 0.05 0.05 80 1005.8
20260505184207 16 46 0.0 6.4 0.00 0.05 0.05 80 1005.8
20260505183659 16 56 0.0 4.8 0.00 0.05 0.05 80 1005.8
20260505183459 16 34 0.0 8.0 0.00 0.05 0.05 80 1005.7
20260505182657 16 32 1.6 9.7 0.00 0.05 0.05 80 1005.7
20260505182233 16 27 3.2 11.3 0.00 0.05 0.05 80 1005.7
20260505181149 17 53 0.0 8.0 0.00 0.05 0.05 80 1005.8
20260505180648 17 53 1.6 9.7 0.00 0.05 0.05 80 1005.9
20260505180147 17 38 1.6 9.7 0.00 0.05 0.05 81 1005.9
20260505175646 17 27 1.6 12.9 0.00 0.05 0.05 81 1005.9
20260505175140 17 24 1.6 12.9 0.00 0.05 0.05 81 1005.9
20260505174633 17 12 1.6 9.7 0.00 0.05 0.05 81 1005.9
20260505174432 17 26 1.6 8.0 0.00 0.05 0.05 81 1005.9
20260505173942 17 351 1.6 9.7 0.00 0.05 0.05 81 1006.1
20260505173134 17 359 1.6 9.7 0.00 0.05 0.05 81 1006.0
20260505172634 17 1 1.6 9.7 0.00 0.05 0.05 81 1006.1
20260505172134 17 338 1.6 9.7 0.00 0.05 0.05 80 1006.1
20260505171635 17 10 0.0 9.7 0.00 0.05 0.05 80 1006.0
20260505171128 17 17 0.0 9.7 0.00 0.05 0.05 81 1006.0
20260505170911 17 15 1.6 11.3 0.00 0.05 0.05 80 1005.9
20260505170117 17 340 1.6 11.3 0.00 0.05 0.05 79 1006.0
20260505165617 18 359 1.6 12.9 0.00 0.05 0.05 79 1006.1
20260505165111 18 16 3.2 12.9 0.00 0.05 0.05 78 1006.1
20260505164906 18 11 3.2 12.9 0.00 0.05 0.05 77 1006.1
20260505164106 18 2 1.6 12.9 0.00 0.05 0.05 77 1006.0
20260505163901 18 40 3.2 12.9 0.00 0.05 0.05 77 1006.1
20260505163405 18 4 3.2 12.9 0.00 0.05 0.05 76 1006.2
20260505162602 18 44 3.2 14.5 0.00 0.05 0.05 77 1006.2
20260505162101 18 22 3.2 14.5 0.00 0.05 0.05 77 1006.2
20260505161556 18 25 1.6 12.9 0.00 0.05 0.05 77 1006.3
20260505161055 18 3 1.6 12.9 0.00 0.05 0.05 78 1006.5
20260505160852 18 27 1.6 12.9 0.00 0.05 0.05 79 1006.4
20260505153035 17 8 1.6 9.7 0.00 0.05 0.05 78 1006.7
20260505152535 17 4 1.6 8.0 0.00 0.05 0.05 79 1006.6
20260505152036 17 13 1.6 8.0 0.00 0.05 0.05 79 1006.6
20260505151536 17 0 1.6 9.7 0.00 0.05 0.05 79 1006.7
20260505151031 17 68 3.2 11.3 0.00 0.05 0.05 78 1006.8
20260505150528 17 0 3.2 11.3 0.00 0.05 0.05 77 1006.8
20260505140311 18 359 3.2 12.9 0.00 0.05 0.05 80 1007.1
20260505124930 18 358 3.2 11.3 0.00 0.05 0.05 74 1007.5
20260505124430 19 339 3.2 14.5 0.00 0.05 0.05 73 1007.6
20260505123932 18 1 3.2 14.5 0.00 0.05 0.05 74 1007.6
20260505123432 18 6 3.2 11.3 0.00 0.05 0.05 76 1007.6
20260505122933 18 297 3.2 9.7 0.00 0.05 0.05 76 1007.6
20260505122432 18 322 3.2 9.7 0.00 0.05 0.05 77 1007.6
20260505121934 18 335 1.6 9.7 0.00 0.05 0.05 80 1007.6
20260505121433 18 359 1.6 9.7 0.00 0.05 0.05 80 1007.6
20260505120929 18 358 3.2 12.9 0.00 0.05 0.05 80 1007.7
20260505120427 18 302 4.8 16.1 0.00 0.05 0.05 78 1007.7
20260505120227 18 300 3.2 16.1 0.00 0.05 0.05 80 1007.7
20260505115421 18 301 4.8 14.5 0.00 0.05 0.05 80 1007.8
20260505114913 18 276 3.2 14.5 0.00 0.05 0.05 80 1007.8
20260505114405 18 314 3.2 14.5 0.00 0.05 0.05 81 1007.8
20260505113905 17 295 3.2 14.5 0.00 0.05 0.05 80 1007.8
20260505113405 18 313 3.2 9.7 0.00 0.05 0.05 80 1007.8
20260505112907 18 288 3.2 12.9 0.00 0.05 0.05 80 1007.7
20260505112405 18 356 3.2 12.9 0.00 0.05 0.05 79 1007.8
20260505111902 18 304 3.2 9.7 0.00 0.05 0.05 77 1007.8
20260505111705 18 323 3.2 12.9 0.00 0.05 0.05 77 1007.9
20260505111151 18 27 3.2 12.9 0.00 0.05 0.05 77 1007.9
20260505110349 18 319 3.2 14.5 0.00 0.05 0.05 78 1007.9
20260505101835 16 310 1.6 9.7 0.00 0.05 0.05 89 1008.1
20260505101333 16 9 1.6 8.0 0.00 0.05 0.05 90 1008.2
20260505100831 16 323 1.6 8.0 0.00 0.05 0.05 89 1008.1
20260505100332 16 335 1.6 8.0 0.00 0.05 0.05 89 1008.1
20260505100146 16 346 1.6 8.0 0.00 0.05 0.05 89 1008.2
20260505095333 16 6 1.6 8.0 0.00 0.05 0.05 90 1008.1
20260505095128 16 6 1.6 9.7 0.00 0.05 0.05 90 1008.1
20260505094330 15 4 1.6 9.7 0.00 0.05 0.05 90 1008.2
20260505093831 15 1 1.6 9.7 0.00 0.05 0.05 90 1008.3
20260505093334 15 355 0.0 6.4 0.00 0.05 0.05 90 1008.3
20260505092831 15 10 1.6 6.4 0.00 0.05 0.05 90 1008.3
20260505092629 15 10 1.6 6.4 0.00 0.05 0.05 90 1008.3
20260505091831 15 3 1.6 6.4 0.00 0.05 0.05 90 1008.5
20260505091632 16 340 1.6 6.4 0.00 0.05 0.05 90 1008.6
20260505090833 16 314 0.0 4.8 0.00 0.05 0.05 90 1008.5
20260505090641 16 314 0.0 6.4 0.00 0.05 0.05 90 1008.5
20260505085825 16 325 0.0 6.4 0.00 0.05 0.05 90 1008.5
20260505085325 16 295 0.0 4.8 0.00 0.05 0.05 89 1008.5
20260505085116 16 344 1.6 6.4 0.00 0.05 0.05 89 1008.5
20260505084322 16 315 0.0 6.4 0.00 0.05 0.05 88 1008.5
20260505084115 16 316 0.0 8.0 0.00 0.05 0.05 89 1008.5
20260505083306 16 316 0.0 8.0 0.03 0.05 0.05 89 1008.4
20260505082805 16 283 1.6 8.0 0.03 0.05 0.05 90 1008.4
20260505082305 16 0 0.0 8.0 0.03 0.05 0.05 90 1008.4
20260505081801 15 333 0.0 6.4 0.03 0.05 0.05 91 1008.4
20260505081301 15 317 0.0 6.4 0.03 0.05 0.05 91 1008.3
20260505080838 15 297 0.0 4.8 0.03 0.05 0.05 91 1008.4
20260505080117 15 5 0.0 0.0 0.03 0.05 0.05 92 1008.4
20260505075258 15 5 0.0 0.0 0.03 0.05 0.05 92 1008.5
20260505074753 15 5 0.0 0.0 0.03 0.05 0.05 91 1008.6
20260505074548 15 8 0.0 0.0 0.05 0.05 0.05 91 1008.7
20260505074039 15 8 0.0 0.0 0.05 0.05 0.05 90 1008.9
20260505073239 15 8 0.0 0.0 0.03 0.05 0.05 90 1009.0
20260505072738 15 8 0.0 0.0 0.03 0.05 0.05 89 1009.0
20260505072237 15 8 0.0 0.0 0.03 0.05 0.05 91 1009.0
20260505071735 15 8 0.0 0.0 0.03 0.05 0.05 90 1009.0
20260505071233 15 8 0.0 0.0 0.05 0.05 0.05 90 1008.9
20260505070731 15 8 0.0 0.0 0.05 0.05 0.05 90 1008.9
20260505070528 14 8 0.0 0.0 0.05 0.05 0.05 90 1008.9
20260505065732 14 8 0.0 0.0 0.05 0.05 0.05 90 1008.9
20260505065232 15 8 0.0 0.0 0.05 0.05 0.05 89 1008.9
20260505065041 15 9 0.0 0.0 0.05 0.05 0.05 89 1008.9
20260505064235 15 9 0.0 0.0 0.03 0.03 0.03 89 1008.8
20260505063734 15 8 0.0 0.0 0.03 0.03 0.03 89 1008.7
20260505063232 15 8 0.0 0.0 0.03 0.03 0.03 88 1008.8
20260505062731 15 8 0.0 0.0 0.03 0.03 0.03 87 1008.9
20260505062233 15 8 0.0 0.0 0.03 0.03 0.03 87 1008.9
20260505061734 15 8 0.0 0.0 0.03 0.03 0.03 87 1008.9
20260505061525 15 8 0.0 0.0 0.00 0.00 0.00 86 1008.8
20260505060735 15 8 0.0 0.0 0.00 0.00 0.00 86 1008.9
20260505060234 15 8 0.0 0.0 0.00 0.00 0.00 86 1008.9
20260505055736 15 9 0.0 0.0 0.00 0.00 0.00 85 1008.8
20260505055233 15 9 0.0 0.0 0.00 0.00 0.00 86 1008.8
20260505054734 15 9 0.0 0.0 0.00 0.00 0.00 85 1008.7
20260505054229 15 9 0.0 0.0 0.00 0.00 0.00 85 1008.7
20260505053730 15 9 0.0 0.0 0.00 0.00 0.00 85 1008.7
20260505053229 15 1 0.0 3.2 0.00 0.00 0.00 85 1008.6
20260505052719 15 13 0.0 3.2 0.00 0.00 0.00 85 1008.5
20260505052211 15 359 0.0 6.4 0.00 0.00 0.00 85 1008.5
20260505051711 15 17 0.0 6.4 0.00 0.00 0.00 85 1008.5
20260505051210 14 1 0.0 1.6 0.00 0.00 0.00 85 1008.5
20260505051013 14 1 0.0 8.0 0.00 0.00 0.00 86 1008.4
20260505050205 14 18 0.0 8.0 0.00 0.00 0.00 86 1008.3
20260505041500 14 17 1.6 9.7 0.00 0.00 0.00 86 1008.6
20260505040704 14 18 1.6 9.7 0.00 0.00 0.00 86 1008.6
20260505040458 14 39 0.0 4.8 0.00 0.00 0.00 86 1008.6
20260505035652 14 359 0.0 0.0 0.00 0.00 0.00 86 1008.7
20260505035151 14 359 0.0 0.0 0.00 0.00 0.00 86 1008.8
20260505034651 14 359 0.0 0.0 0.00 0.00 0.00 86 1008.8
20260505034151 14 359 0.0 0.0 0.00 0.00 0.00 86 1008.7
20260505033934 14 28 0.0 0.0 0.00 0.00 0.00 86 1008.7
20260505033138 14 33 0.0 0.0 0.00 0.00 0.00 86 1008.8
20260505032637 14 34 0.0 0.0 0.00 0.00 0.00 87 1008.8
20260505032134 14 34 0.0 0.0 0.00 0.00 0.00 87 1008.9
20260505031634 14 34 0.0 0.0 0.00 0.00 0.00 87 1009.0
20260505031132 14 34 0.0 0.0 0.00 0.00 0.00 87 1009.0
20260505030920 14 34 0.0 0.0 0.00 0.00 0.00 86 1009.0
20260505030132 14 34 0.0 0.0 0.00 0.00 0.00 87 1009.1
20260505025710 14 34 0.0 0.0 0.00 0.00 0.00 86 1009.2
20260505024635 14 34 0.0 0.0 0.00 0.00 0.00 85 1009.3
20260505024134 14 34 0.0 0.0 0.00 0.00 0.00 85 1009.3
20260505023627 14 34 0.0 0.0 0.00 0.00 0.00 85 1009.3
20260505023117 14 34 0.0 0.0 0.00 0.00 0.00 85 1009.4
20260505022609 14 34 0.0 0.0 0.00 0.00 0.00 85 1009.3
20260505022356 14 34 0.0 0.0 0.00 0.00 0.00 86 1009.3
20260505021608 14 34 0.0 0.0 0.00 0.00 0.00 86 1009.3
20260505021109 14 34 0.0 0.0 0.00 0.00 0.00 85 1009.4
20260505020609 14 34 0.0 0.0 0.00 0.00 0.00 85 1009.3
20260505020109 14 34 0.0 0.0 0.00 0.00 0.00 85 1009.4
20260505015603 14 34 0.0 0.0 0.00 0.00 0.00 85 1009.5
20260505015159 14 34 0.0 0.0 0.00 0.00 0.00 85 1009.5
20260505014103 14 34 0.0 0.0 0.00 0.00 0.00 85 1009.7
20260505013556 14 34 0.0 0.0 0.00 0.00 0.00 85 1009.7
20260505013050 14 34 0.0 0.0 0.00 0.00 0.00 85 1009.7
20260505012542 14 34 0.0 0.0 0.00 0.00 0.00 84 1009.8
20260505012040 14 34 0.0 0.0 0.00 0.00 0.00 85 1009.8
20260505011541 14 34 0.0 0.0 0.00 0.00 0.00 85 1009.8